Time,TemperatureF,DewpointF,PressureIn,WindDirection,WindDirectionDegrees,WindSpeedMPH,WindSpeedGustMPH,Humidity,HourlyPrecipIn,Conditions,Clouds,dailyrainin,SolarRadiationWatts/m^2,SoftwareType,DateUTC
2013-03-06 00:00:00,31.2,10.7,30.19,SW,217,2.0,-999.0,43,-99.99,,,0.00,0.0,cwc,2013-03-06 07:00:00,
2013-03-06 00:05:00,31.3,10.8,30.18,SW,217,4.0,-999.0,43,-99.99,,,0.00,0.0,cwc,2013-03-06 07:05:00,
2013-03-06 00:10:00,31.3,10.8,30.19,SW,217,2.0,-999.0,43,-99.99,,,0.00,0.0,cwc,2013-03-06 07:10:00,
2013-03-06 00:15:00,31.4,10.9,30.19,SW,217,3.0,-999.0,43,-99.99,,,0.00,0.0,cwc,2013-03-06 07:15:00,
2013-03-06 00:25:00,31.4,10.9,30.19,SW,217,3.0,-999.0,43,-99.99,,,0.00,0.0,cwc,2013-03-06 07:25:00,
2013-03-06 00:30:00,31.0,10.8,30.18,SW,217,1.0,-999.0,44,-99.99,,,0.00,0.0,cwc,2013-03-06 07:30:00,
2013-03-06 00:40:00,30.8,10.6,30.18,SW,217,3.0,-999.0,44,-99.99,,,0.00,0.0,cwc,2013-03-06 07:40:00,
2013-03-06 00:45:00,30.9,10.7,30.18,SW,217,1.0,-999.0,44,-99.99,,,0.00,0.0,cwc,2013-03-06 07:45:00,
2013-03-06 00:50:00,30.9,10.7,30.18,SW,217,0.0,-999.0,44,-99.99,,,0.00,0.0,cwc,2013-03-06 07:50:00,
2013-03-06 00:55:00,30.8,10.6,30.18,SW,217,0.0,-999.0,44,-99.99,,,0.00,0.0,cwc,2013-03-06 07:55:00,
2013-03-06 01:00:00,30.6,10.4,30.18,SW,217,0.0,-999.0,44,-99.99,,,0.00,0.0,cwc,2013-03-06 08:00:00,
2013-03-06 01:05:00,30.3,10.5,30.18,SW,217,1.0,-999.0,45,-99.99,,,0.00,0.0,cwc,2013-03-06 08:05:00,
2013-03-06 01:10:00,30.0,10.2,30.18,SW,217,0.0,-999.0,45,-99.99,,,0.00,0.0,cwc,2013-03-06 08:10:00,
2013-03-06 01:15:00,29.7,10.3,30.18,SW,217,1.0,-999.0,46,-99.99,,,0.00,0.0,cwc,2013-03-06 08:15:00,
2013-03-06 01:25:00,29.3,10.2,30.18,SW,217,2.0,-999.0,47,-99.99,,,0.00,0.0,cwc,2013-03-06 08:25:00,
2013-03-06 01:30:00,29.3,10.2,30.18,SW,217,1.0,-999.0,47,-99.99,,,0.00,0.0,cwc,2013-03-06 08:30:00,
2013-03-06 01:35:00,29.3,10.2,30.18,SW,217,3.0,-999.0,47,-99.99,,,0.00,0.0,cwc,2013-03-06 08:35:00,
2013-03-06 01:40:00,29.0,10.3,30.18,SW,217,2.0,-999.0,48,-99.99,,,0.00,0.0,cwc,2013-03-06 08:40:00,
2013-03-06 01:45:00,28.9,10.2,30.18,SW,217,3.0,-999.0,48,-99.99,,,0.00,0.0,cwc,2013-03-06 08:45:00,
2013-03-06 01:55:00,29.2,10.5,30.18,SW,217,0.0,-999.0,48,-99.99,,,0.00,0.0,cwc,2013-03-06 08:55:00,
2013-03-06 02:00:00,29.3,10.6,30.18,SW,217,3.0,-999.0,48,-99.99,,,0.00,0.0,cwc,2013-03-06 09:00:00,
2013-03-06 02:05:00,29.2,10.5,30.18,SW,217,0.0,-999.0,48,-99.99,,,0.00,0.0,cwc,2013-03-06 09:05:00,
2013-03-06 02:15:00,28.7,10.0,30.18,SW,217,0.0,-999.0,48,-99.99,,,0.00,0.0,cwc,2013-03-06 09:15:00,
2013-03-06 02:20:00,28.4,9.7,30.18,SW,217,0.0,-999.0,48,-99.99,,,0.00,0.0,cwc,2013-03-06 09:20:00,
2013-03-06 02:25:00,28.1,9.4,30.17,SW,217,0.0,-999.0,48,-99.99,,,0.00,0.0,cwc,2013-03-06 09:25:00,
2013-03-06 02:30:00,27.8,9.4,30.17,SW,217,0.0,-999.0,49,-99.99,,,0.00,0.0,cwc,2013-03-06 09:30:00,
2013-03-06 02:40:00,27.2,9.6,30.17,SW,217,3.0,-999.0,51,-99.99,,,0.00,0.0,cwc,2013-03-06 09:40:00,
2013-03-06 02:45:00,27.2,9.6,30.17,SW,217,1.0,-999.0,51,-99.99,,,0.00,0.0,cwc,2013-03-06 09:45:00,
2013-03-06 02:50:00,27.2,9.6,30.16,SW,217,1.0,-999.0,51,-99.99,,,0.00,0.0,cwc,2013-03-06 09:50:00,
2013-03-06 02:55:00,27.3,9.7,30.16,SW,217,0.0,-999.0,51,-99.99,,,0.00,0.0,cwc,2013-03-06 09:55:00,
2013-03-06 03:00:00,27.3,9.7,30.16,SW,217,0.0,-999.0,51,-99.99,,,0.00,0.0,cwc,2013-03-06 10:00:00,
2013-03-06 03:10:00,27.1,9.5,30.17,SW,217,0.0,-999.0,51,-99.99,,,0.00,0.0,cwc,2013-03-06 10:10:00,
2013-03-06 03:15:00,26.9,9.6,30.17,SW,217,0.0,-999.0,52,-99.99,,,0.00,0.0,cwc,2013-03-06 10:15:00,
2013-03-06 03:20:00,26.8,9.5,30.17,SW,217,0.0,-999.0,52,-99.99,,,0.00,0.0,cwc,2013-03-06 10:20:00,
2013-03-06 03:25:00,26.8,9.5,30.16,SW,217,1.0,-999.0,52,-99.99,,,0.00,0.0,cwc,2013-03-06 10:25:00,
2013-03-06 03:30:00,26.9,10.0,30.17,SW,217,0.0,-999.0,53,-99.99,,,0.00,0.0,cwc,2013-03-06 10:30:00,
2013-03-06 03:35:00,27.2,10.3,30.16,SW,217,2.0,-999.0,53,-99.99,,,0.00,0.0,cwc,2013-03-06 10:35:00,
2013-03-06 03:40:00,27.5,10.2,30.17,SW,217,1.0,-999.0,52,-99.99,,,0.00,0.0,cwc,2013-03-06 10:40:00,
2013-03-06 03:45:00,28.0,10.7,30.17,SW,217,0.0,-999.0,52,-99.99,,,0.00,0.0,cwc,2013-03-06 10:45:00,
2013-03-06 03:55:00,28.9,10.9,30.17,SW,217,4.0,-999.0,50,-99.99,,,0.00,0.0,cwc,2013-03-06 10:55:00,
2013-03-06 04:00:00,28.7,10.7,30.16,SW,217,0.0,-999.0,50,-99.99,,,0.00,0.0,cwc,2013-03-06 11:00:00,
2013-03-06 04:10:00,28.7,10.7,30.16,SW,217,0.0,-999.0,50,-99.99,,,0.00,0.0,cwc,2013-03-06 11:10:00,
2013-03-06 04:15:00,28.3,10.7,30.16,SW,217,0.0,-999.0,51,-99.99,,,0.00,0.0,cwc,2013-03-06 11:15:00,
2013-03-06 04:20:00,28.0,10.4,30.16,SW,217,0.0,-999.0,51,-99.99,,,0.00,0.0,cwc,2013-03-06 11:20:00,
2013-03-06 04:25:00,27.8,10.5,30.16,SW,217,0.0,-999.0,52,-99.99,,,0.00,0.0,cwc,2013-03-06 11:25:00,
2013-03-06 04:30:00,27.5,10.2,30.16,SW,217,0.0,-999.0,52,-99.99,,,0.00,0.0,cwc,2013-03-06 11:30:00,
2013-03-06 04:35:00,27.2,9.9,30.16,SW,217,0.0,-999.0,52,-99.99,,,0.00,0.0,cwc,2013-03-06 11:35:00,
2013-03-06 04:40:00,26.9,10.0,30.16,SW,217,0.0,-999.0,53,-99.99,,,0.00,0.0,cwc,2013-03-06 11:40:00,
2013-03-06 04:45:00,26.4,9.5,30.16,SW,217,0.0,-999.0,53,-99.99,,,0.00,0.0,cwc,2013-03-06 11:45:00,
2013-03-06 04:55:00,25.6,9.0,30.16,SW,217,0.0,-999.0,54,-99.99,,,0.00,0.0,cwc,2013-03-06 11:55:00,
2013-03-06 05:00:00,25.3,9.1,30.16,SW,217,0.0,-999.0,55,-99.99,,,0.00,0.0,cwc,2013-03-06 12:00:00,
2013-03-06 05:05:00,25.1,9.6,30.16,SW,217,0.0,-999.0,57,-99.99,,,0.00,0.0,cwc,2013-03-06 12:05:00,
2013-03-06 05:10:00,24.9,9.4,30.16,SW,217,2.0,-999.0,57,-99.99,,,0.00,0.0,cwc,2013-03-06 12:10:00,
2013-03-06 05:15:00,25.0,9.5,30.16,SW,217,2.0,-999.0,57,-99.99,,,0.00,0.0,cwc,2013-03-06 12:15:00,
2013-03-06 05:25:00,25.1,9.3,30.16,SW,217,0.0,-999.0,56,-99.99,,,0.00,0.0,cwc,2013-03-06 12:25:00,
2013-03-06 05:30:00,24.9,9.4,30.16,SW,217,0.0,-999.0,57,-99.99,,,0.00,0.0,cwc,2013-03-06 12:30:00,
2013-03-06 05:35:00,24.8,9.3,30.16,SW,217,0.0,-999.0,57,-99.99,,,0.00,0.0,cwc,2013-03-06 12:35:00,
2013-03-06 05:40:00,24.5,9.0,30.16,SW,217,0.0,-999.0,57,-99.99,,,0.00,0.0,cwc,2013-03-06 12:40:00,
2013-03-06 05:45:00,24.2,9.1,30.16,SW,217,0.0,-999.0,58,-99.99,,,0.00,0.0,cwc,2013-03-06 12:45:00,
2013-03-06 05:55:00,23.9,9.1,30.16,SW,217,1.0,-999.0,59,-99.99,,,0.00,0.0,cwc,2013-03-06 12:55:00,
2013-03-06 06:00:00,23.9,9.1,30.16,SW,217,0.0,-999.0,59,-99.99,,,0.00,0.0,cwc,2013-03-06 13:00:00,
2013-03-06 06:05:00,23.9,9.1,30.16,SW,217,0.0,-999.0,59,-99.99,,,0.00,0.0,cwc,2013-03-06 13:05:00,
2013-03-06 06:10:00,23.8,9.0,30.16,SW,217,0.0,-999.0,59,-99.99,,,0.00,0.0,cwc,2013-03-06 13:10:00,
2013-03-06 06:15:00,23.7,8.9,30.16,SW,217,0.0,-999.0,59,-99.99,,,0.00,0.0,cwc,2013-03-06 13:15:00,
2013-03-06 06:25:00,23.5,9.1,30.16,SW,217,0.0,-999.0,60,-99.99,,,0.00,0.0,cwc,2013-03-06 13:25:00,
2013-03-06 06:30:00,23.4,9.0,30.16,SW,217,0.0,-999.0,60,-99.99,,,0.00,0.0,cwc,2013-03-06 13:30:00,
2013-03-06 06:35:00,23.2,9.2,30.16,SW,217,2.0,-999.0,61,-99.99,,,0.00,9.0,cwc,2013-03-06 13:35:00,
2013-03-06 06:40:00,23.3,9.3,30.16,SW,217,0.0,-999.0,61,-99.99,,,0.00,12.0,cwc,2013-03-06 13:40:00,
2013-03-06 06:45:00,23.5,9.8,30.16,SW,217,2.0,-999.0,62,-99.99,,,0.00,16.0,cwc,2013-03-06 13:45:00,
2013-03-06 06:55:00,23.5,9.5,30.16,SW,217,2.0,-999.0,61,-99.99,,,0.00,26.0,cwc,2013-03-06 13:55:00,
2013-03-06 07:00:00,23.2,9.2,30.16,SW,217,2.0,-999.0,61,-99.99,,,0.00,30.0,cwc,2013-03-06 14:00:00,
2013-03-06 07:05:00,23.0,9.0,30.16,SW,217,0.0,-999.0,61,-99.99,,,0.00,37.0,cwc,2013-03-06 14:05:00,
2013-03-06 07:10:00,23.1,9.1,30.15,SW,217,0.0,-999.0,61,-99.99,,,0.00,46.0,cwc,2013-03-06 14:10:00,
2013-03-06 07:15:00,23.3,9.3,30.16,SW,217,0.0,-999.0,61,-99.99,,,0.00,107.0,cwc,2013-03-06 14:15:00,
2013-03-06 07:20:00,23.6,9.9,30.16,SW,217,2.0,-999.0,62,-99.99,,,0.00,118.0,cwc,2013-03-06 14:20:00,
2013-03-06 07:25:00,24.2,10.5,30.16,SW,217,0.0,-999.0,62,-99.99,,,0.00,123.0,cwc,2013-03-06 14:25:00,
2013-03-06 07:30:00,24.7,10.7,30.16,SW,217,0.0,-999.0,61,-99.99,,,0.00,144.0,cwc,2013-03-06 14:30:00,
2013-03-06 07:35:00,25.2,10.8,30.15,SW,217,1.0,-999.0,60,-99.99,,,0.00,176.0,cwc,2013-03-06 14:35:00,
2013-03-06 07:40:00,26.1,11.3,30.15,SW,217,0.0,-999.0,59,-99.99,,,0.00,204.0,cwc,2013-03-06 14:40:00,
2013-03-06 07:45:00,27.0,11.9,30.15,SW,217,0.0,-999.0,58,-99.99,,,0.00,216.0,cwc,2013-03-06 14:45:00,
2013-03-06 07:55:00,29.3,13.1,30.16,SW,217,0.0,-999.0,55,-99.99,,,0.00,250.0,cwc,2013-03-06 14:55:00,
2013-03-06 08:00:00,30.6,13.7,30.16,SW,217,0.0,-999.0,53,-99.99,,,0.00,281.0,cwc,2013-03-06 15:00:00,
2013-03-06 08:10:00,33.2,14.5,30.15,SW,217,1.0,-999.0,48,-99.99,,,0.00,301.0,cwc,2013-03-06 15:10:00,
2013-03-06 08:15:00,34.4,15.3,30.15,SW,217,0.0,-999.0,47,-99.99,,,0.00,316.0,cwc,2013-03-06 15:15:00,
2013-03-06 08:25:00,36.6,16.4,30.15,SW,217,0.0,-999.0,44,-99.99,,,0.00,353.0,cwc,2013-03-06 15:25:00,
2013-03-06 08:30:00,37.6,16.7,30.15,SW,217,2.0,-999.0,42,-99.99,,,0.00,378.0,cwc,2013-03-06 15:30:00,
2013-03-06 08:40:00,38.2,17.0,30.14,SW,218,0.0,-999.0,41,-99.99,,,0.00,434.0,cwc,2013-03-06 15:40:00,
2013-03-06 08:45:00,38.7,17.1,30.14,SW,219,1.0,-999.0,40,-99.99,,,0.00,438.0,cwc,2013-03-06 15:45:00,
2013-03-06 08:55:00,39.8,18.2,30.14,SW,219,0.0,-999.0,40,-99.99,,,0.00,485.0,cwc,2013-03-06 15:55:00,
2013-03-06 09:00:00,40.5,18.5,30.14,SW,219,0.0,-999.0,39,-99.99,,,0.00,452.0,cwc,2013-03-06 16:00:00,
2013-03-06 09:05:00,41.8,19.5,30.13,SW,220,0.0,-999.0,38,-99.99,,,0.00,431.0,cwc,2013-03-06 16:05:00,
2013-03-06 09:10:00,42.9,19.9,30.13,SW,220,1.0,-999.0,36,-99.99,,,0.00,497.0,cwc,2013-03-06 16:10:00,
2013-03-06 09:15:00,43.9,20.9,30.13,SW,219,0.0,-999.0,36,-99.99,,,0.00,469.0,cwc,2013-03-06 16:15:00,
2013-03-06 09:20:00,44.5,21.1,30.13,SW,223,0.0,-999.0,35,-99.99,,,0.00,499.0,cwc,2013-03-06 16:20:00,
2013-03-06 09:25:00,44.7,20.9,30.12,SW,222,3.0,-999.0,34,-99.99,,,0.00,501.0,cwc,2013-03-06 16:25:00,
2013-03-06 09:30:00,44.9,21.1,30.12,SW,222,0.0,-999.0,34,-99.99,,,0.00,471.0,cwc,2013-03-06 16:30:00,
2013-03-06 09:40:00,46.2,22.1,30.11,SW,223,0.0,-999.0,33,-99.99,,,0.00,545.0,cwc,2013-03-06 16:40:00,
2013-03-06 09:45:00,46.7,22.6,30.11,SW,223,2.0,-999.0,33,-99.99,,,0.00,582.0,cwc,2013-03-06 16:45:00,
2013-03-06 09:50:00,46.8,22.7,30.11,SW,223,1.0,-999.0,33,-99.99,,,0.00,617.0,cwc,2013-03-06 16:50:00,
2013-03-06 09:55:00,47.3,23.2,30.11,SW,223,2.0,-999.0,33,-99.99,,,0.00,622.0,cwc,2013-03-06 16:55:00,
2013-03-06 10:00:00,47.6,23.1,30.10,NW,317,3.0,-999.0,32,-99.99,,,0.00,647.0,cwc,2013-03-06 17:00:00,
2013-03-06 10:10:00,48.1,23.6,30.10,NW,317,0.0,-999.0,32,-99.99,,,0.00,675.0,cwc,2013-03-06 17:10:00,
2013-03-06 10:15:00,49.0,24.5,30.09,NW,317,0.0,-999.0,32,-99.99,,,0.00,691.0,cwc,2013-03-06 17:15:00,
2013-03-06 10:25:00,50.8,25.6,30.08,NW,318,2.0,-999.0,30,-99.99,,,0.00,726.0,cwc,2013-03-06 17:25:00,
2013-03-06 10:30:00,51.1,26.3,30.08,NW,317,4.0,-999.0,31,-99.99,,,0.00,698.0,cwc,2013-03-06 17:30:00,
2013-03-06 10:35:00,51.5,26.3,30.07,NW,321,0.0,-999.0,30,-99.99,,,0.00,740.0,cwc,2013-03-06 17:35:00,
2013-03-06 10:40:00,51.9,26.7,30.07,NW,321,0.0,-999.0,30,-99.99,,,0.00,738.0,cwc,2013-03-06 17:40:00,
2013-03-06 10:45:00,53.1,27.5,30.07,SW,236,3.0,-999.0,29,-99.99,,,0.00,737.0,cwc,2013-03-06 17:45:00,
2013-03-06 10:55:00,53.6,28.0,30.06,West,262,5.0,-999.0,29,-99.99,,,0.00,728.0,cwc,2013-03-06 17:55:00,
2013-03-06 11:00:00,53.7,28.1,30.06,WSW,257,4.0,-999.0,29,-99.99,,,0.00,747.0,cwc,2013-03-06 18:00:00,
2013-03-06 11:05:00,53.8,27.9,30.05,SW,233,5.0,-999.0,28,-99.99,,,0.00,765.0,cwc,2013-03-06 18:05:00,
2013-03-06 11:10:00,54.2,28.6,30.05,SW,225,14.0,-999.0,29,-99.99,,,0.00,768.0,cwc,2013-03-06 18:10:00,
2013-03-06 11:15:00,54.8,28.9,30.05,SW,223,10.0,-999.0,28,-99.99,,,0.00,780.0,cwc,2013-03-06 18:15:00,
2013-03-06 11:25:00,55.7,29.8,30.03,West,279,11.0,-999.0,28,-99.99,,,0.00,768.0,cwc,2013-03-06 18:25:00,
2013-03-06 11:30:00,56.0,30.1,30.03,SSW,212,7.0,-999.0,28,-99.99,,,0.00,784.0,cwc,2013-03-06 18:30:00,
2013-03-06 11:40:00,56.5,30.6,30.03,SW,229,8.0,-999.0,28,-99.99,,,0.00,798.0,cwc,2013-03-06 18:40:00,
2013-03-06 11:45:00,56.8,30.9,30.02,SW,234,8.0,-999.0,28,-99.99,,,0.00,803.0,cwc,2013-03-06 18:45:00,
2013-03-06 11:55:00,57.3,31.0,30.02,SSW,201,9.0,-999.0,27,-99.99,,,0.00,803.0,cwc,2013-03-06 18:55:00,
2013-03-06 12:00:00,57.5,31.2,30.01,WSW,242,13.0,-999.0,27,-99.99,,,0.00,809.0,cwc,2013-03-06 19:00:00,
2013-03-06 12:10:00,58.2,31.9,30.01,WSW,246,15.0,-999.0,27,-99.99,,,0.00,802.0,cwc,2013-03-06 19:10:00,
2013-03-06 12:15:00,58.5,31.9,30.00,SSW,211,7.0,-999.0,26,-99.99,,,0.00,803.0,cwc,2013-03-06 19:15:00,
2013-03-06 12:25:00,59.0,32.4,30.00,SW,215,10.0,-999.0,26,-99.99,,,0.00,809.0,cwc,2013-03-06 19:25:00,
2013-03-06 12:30:00,59.0,32.4,30.00,SW,217,13.0,-999.0,26,-99.99,,,0.00,807.0,cwc,2013-03-06 19:30:00,
2013-03-06 12:40:00,59.4,32.8,29.99,South,184,6.0,-999.0,26,-99.99,,,0.00,798.0,cwc,2013-03-06 19:40:00,
2013-03-06 12:45:00,59.8,33.2,29.98,SW,219,12.0,-999.0,26,-99.99,,,0.00,796.0,cwc,2013-03-06 19:45:00,
2013-03-06 12:55:00,60.5,33.9,29.98,SW,217,10.0,-999.0,26,-99.99,,,0.00,795.0,cwc,2013-03-06 19:55:00,
2013-03-06 13:00:00,60.4,33.4,29.97,WSW,244,10.0,-999.0,25,-99.99,,,0.00,788.0,cwc,2013-03-06 20:00:00,
2013-03-06 13:05:00,60.4,33.8,29.96,SSW,205,4.0,-999.0,26,-99.99,,,0.00,782.0,cwc,2013-03-06 20:05:00,
2013-03-06 13:10:00,61.0,34.0,29.96,SSW,212,15.0,-999.0,25,-99.99,,,0.00,779.0,cwc,2013-03-06 20:10:00,
2013-03-06 13:15:00,61.3,34.3,29.95,SW,215,6.0,-999.0,25,-99.99,,,0.00,772.0,cwc,2013-03-06 20:15:00,
2013-03-06 13:25:00,61.6,34.6,29.94,SSE,165,10.0,-999.0,25,-99.99,,,0.00,761.0,cwc,2013-03-06 20:25:00,
2013-03-06 13:30:00,61.7,34.7,29.94,SW,220,6.0,-999.0,25,-99.99,,,0.00,758.0,cwc,2013-03-06 20:30:00,
2013-03-06 13:40:00,61.6,34.6,29.93,SW,225,5.0,-999.0,25,-99.99,,,0.00,742.0,cwc,2013-03-06 20:40:00,
2013-03-06 13:45:00,62.2,35.2,29.93,SW,215,7.0,-999.0,25,-99.99,,,0.00,731.0,cwc,2013-03-06 20:45:00,
2013-03-06 13:55:00,62.0,35.0,29.92,WSW,248,1.0,-999.0,25,-99.99,,,0.00,717.0,cwc,2013-03-06 20:55:00,
2013-03-06 14:00:00,62.2,35.2,29.92,SW,215,11.0,-999.0,25,-99.99,,,0.00,707.0,cwc,2013-03-06 21:00:00,
2013-03-06 14:05:00,62.3,34.9,29.91,WSW,237,10.0,-999.0,24,-99.99,,,0.00,698.0,cwc,2013-03-06 21:05:00,
2013-03-06 14:10:00,62.0,34.6,29.91,SW,215,8.0,-999.0,24,-99.99,,,0.00,682.0,cwc,2013-03-06 21:10:00,
2013-03-06 14:15:00,62.1,35.1,29.91,SW,236,8.0,-999.0,25,-99.99,,,0.00,679.0,cwc,2013-03-06 21:15:00,
2013-03-06 14:20:00,62.0,34.6,29.91,SSW,194,3.0,-999.0,24,-99.99,,,0.00,663.0,cwc,2013-03-06 21:20:00,
2013-03-06 14:25:00,62.2,34.8,29.90,South,191,1.0,-999.0,24,-99.99,,,0.00,657.0,cwc,2013-03-06 21:25:00,
2013-03-06 14:30:00,62.6,35.2,29.90,SW,225,10.0,-999.0,24,-99.99,,,0.00,643.0,cwc,2013-03-06 21:30:00,
2013-03-06 14:35:00,62.4,35.4,29.90,West,281,3.0,-999.0,25,-99.99,,,0.00,631.0,cwc,2013-03-06 21:35:00,
2013-03-06 14:40:00,62.5,35.1,29.90,SW,236,7.0,-999.0,24,-99.99,,,0.00,621.0,cwc,2013-03-06 21:40:00,
2013-03-06 14:45:00,62.9,35.5,29.90,SSW,192,4.0,-999.0,24,-99.99,,,0.00,612.0,cwc,2013-03-06 21:45:00,
2013-03-06 14:50:00,63.0,35.6,29.90,SSW,211,7.0,-999.0,24,-99.99,,,0.00,596.0,cwc,2013-03-06 21:50:00,
2013-03-06 14:55:00,63.1,35.7,29.90,South,183,8.0,-999.0,24,-99.99,,,0.00,578.0,cwc,2013-03-06 21:55:00,
2013-03-06 15:00:00,63.4,35.7,29.90,SSW,195,5.0,-999.0,23,-99.99,,,0.00,561.0,cwc,2013-03-06 22:00:00,
2013-03-06 15:05:00,63.4,35.7,29.90,SSW,207,3.0,-999.0,23,-99.99,,,0.00,545.0,cwc,2013-03-06 22:05:00,
2013-03-06 15:10:00,63.4,35.7,29.90,SW,234,6.0,-999.0,23,-99.99,,,0.00,540.0,cwc,2013-03-06 22:10:00,
2013-03-06 15:15:00,63.5,35.8,29.89,WNW,289,3.0,-999.0,23,-99.99,,,0.00,524.0,cwc,2013-03-06 22:15:00,
2013-03-06 15:20:00,64.0,36.3,29.89,South,184,2.0,-999.0,23,-99.99,,,0.00,517.0,cwc,2013-03-06 22:20:00,
2013-03-06 15:25:00,64.0,36.3,29.89,SW,226,8.0,-999.0,23,-99.99,,,0.00,503.0,cwc,2013-03-06 22:25:00,
2013-03-06 15:30:00,63.8,36.1,29.90,West,261,6.0,-999.0,23,-99.99,,,0.00,482.0,cwc,2013-03-06 22:30:00,
2013-03-06 15:35:00,63.9,36.2,29.89,South,185,0.0,-999.0,23,-99.99,,,0.00,468.0,cwc,2013-03-06 22:35:00,
2013-03-06 15:40:00,64.4,36.7,29.89,South,184,0.0,-999.0,23,-99.99,,,0.00,455.0,cwc,2013-03-06 22:40:00,
2013-03-06 15:45:00,64.9,36.8,29.89,WSW,250,6.0,-999.0,22,-99.99,,,0.00,443.0,cwc,2013-03-06 22:45:00,
2013-03-06 15:50:00,64.6,36.5,29.88,SW,223,13.0,-999.0,22,-99.99,,,0.00,429.0,cwc,2013-03-06 22:50:00,
2013-03-06 15:55:00,63.9,36.2,29.88,SSW,209,5.0,-999.0,23,-99.99,,,0.00,408.0,cwc,2013-03-06 22:55:00,
2013-03-06 16:00:00,63.6,35.9,29.88,SW,217,7.0,-999.0,23,-99.99,,,0.00,388.0,cwc,2013-03-06 23:00:00,
2013-03-06 16:05:00,63.8,36.1,29.88,WNW,296,1.0,-999.0,23,-99.99,,,0.00,353.0,cwc,2013-03-06 23:05:00,
2013-03-06 16:10:00,63.9,36.2,29.88,SSW,213,7.0,-999.0,23,-99.99,,,0.00,350.0,cwc,2013-03-06 23:10:00,
2013-03-06 16:15:00,63.4,35.7,29.87,SW,225,1.0,-999.0,23,-99.99,,,0.00,338.0,cwc,2013-03-06 23:15:00,
2013-03-06 16:25:00,63.3,35.6,29.88,SW,227,8.0,-999.0,23,-99.99,,,0.00,308.0,cwc,2013-03-06 23:25:00,
2013-03-06 16:30:00,62.4,34.7,29.88,SW,221,5.0,-999.0,23,-99.99,,,0.00,35.0,cwc,2013-03-06 23:30:00,
2013-03-06 16:40:00,61.2,33.8,29.88,SSW,213,7.0,-999.0,24,-99.99,,,0.00,88.0,cwc,2013-03-06 23:40:00,
2013-03-06 16:45:00,60.9,33.5,29.88,SSW,210,8.0,-999.0,24,-99.99,,,0.00,116.0,cwc,2013-03-06 23:45:00,
2013-03-06 16:55:00,60.9,33.5,29.88,SSW,213,6.0,-999.0,24,-99.99,,,0.00,111.0,cwc,2013-03-06 23:55:00,
2013-03-06 17:00:00,61.0,33.6,29.87,SW,217,9.0,-999.0,24,-99.99,,,0.00,102.0,cwc,2013-03-07 00:00:00,
2013-03-06 17:10:00,60.9,33.5,29.87,SSW,200,1.0,-999.0,24,-99.99,,,0.00,83.0,cwc,2013-03-07 00:10:00,
2013-03-06 17:15:00,60.9,33.2,29.87,SW,215,9.0,-999.0,23,-99.99,,,0.00,69.0,cwc,2013-03-07 00:15:00,
2013-03-06 17:25:00,60.9,33.2,29.87,SW,229,1.0,-999.0,23,-99.99,,,0.00,54.0,cwc,2013-03-07 00:25:00,
2013-03-06 17:30:00,60.9,33.2,29.87,SW,226,3.0,-999.0,23,-99.99,,,0.00,49.0,cwc,2013-03-07 00:30:00,
2013-03-06 17:35:00,60.8,33.1,29.87,SW,226,2.0,-999.0,23,-99.99,,,0.00,44.0,cwc,2013-03-07 00:35:00,
2013-03-06 17:40:00,60.6,33.2,29.88,SW,222,0.0,-999.0,24,-99.99,,,0.00,33.0,cwc,2013-03-07 00:40:00,
2013-03-06 17:45:00,60.4,33.0,29.87,SW,222,0.0,-999.0,24,-99.99,,,0.00,23.0,cwc,2013-03-07 00:45:00,
2013-03-06 17:55:00,60.0,32.3,29.88,SW,222,4.0,-999.0,23,-99.99,,,0.00,12.0,cwc,2013-03-07 00:55:00,
2013-03-06 18:00:00,59.8,32.4,29.88,SW,219,4.0,-999.0,24,-99.99,,,0.00,7.0,cwc,2013-03-07 01:00:00,
2013-03-06 18:05:00,59.5,32.5,29.88,SSW,210,5.0,-999.0,25,-99.99,,,0.00,0.0,cwc,2013-03-07 01:05:00,
2013-03-06 18:10:00,59.0,32.0,29.89,SSW,195,7.0,-999.0,25,-99.99,,,0.00,0.0,cwc,2013-03-07 01:10:00,
2013-03-06 18:15:00,58.9,31.9,29.89,SW,227,6.0,-999.0,25,-99.99,,,0.00,0.0,cwc,2013-03-07 01:15:00,
2013-03-06 18:25:00,58.3,31.7,29.89,SW,218,3.0,-999.0,26,-99.99,,,0.00,0.0,cwc,2013-03-07 01:25:00,
2013-03-06 18:30:00,58.1,31.8,29.89,SSW,211,9.0,-999.0,27,-99.99,,,0.00,0.0,cwc,2013-03-07 01:30:00,
2013-03-06 18:35:00,58.0,31.7,29.89,SW,234,6.0,-999.0,27,-99.99,,,0.00,0.0,cwc,2013-03-07 01:35:00,
2013-03-06 18:40:00,57.8,31.5,29.89,SW,227,5.0,-999.0,27,-99.99,,,0.00,0.0,cwc,2013-03-07 01:40:00,
2013-03-06 18:45:00,57.6,31.3,29.89,WSW,237,6.0,-999.0,27,-99.99,,,0.00,0.0,cwc,2013-03-07 01:45:00,
2013-03-06 18:55:00,57.3,31.0,29.89,WSW,240,7.0,-999.0,27,-99.99,,,0.00,0.0,cwc,2013-03-07 01:55:00,
2013-03-06 19:00:00,57.2,30.9,29.90,SSW,207,6.0,-999.0,27,-99.99,,,0.00,0.0,cwc,2013-03-07 02:00:00,
2013-03-06 19:05:00,56.9,31.0,29.90,SSW,209,7.0,-999.0,28,-99.99,,,0.00,0.0,cwc,2013-03-07 02:05:00,
2013-03-06 19:10:00,56.4,30.5,29.90,SW,214,3.0,-999.0,28,-99.99,,,0.00,0.0,cwc,2013-03-07 02:10:00,
2013-03-06 19:15:00,56.2,30.3,29.90,SW,228,5.0,-999.0,28,-99.99,,,0.00,0.0,cwc,2013-03-07 02:15:00,
2013-03-06 19:20:00,55.9,30.0,29.90,West,261,5.0,-999.0,28,-99.99,,,0.00,0.0,cwc,2013-03-07 02:20:00,
2013-03-06 19:25:00,55.7,29.8,29.90,WSW,240,3.0,-999.0,28,-99.99,,,0.00,0.0,cwc,2013-03-07 02:25:00,
2013-03-06 19:30:00,55.6,30.0,29.90,SW,218,4.0,-999.0,29,-99.99,,,0.00,0.0,cwc,2013-03-07 02:30:00,
2013-03-06 19:35:00,55.6,30.0,29.90,WSW,244,7.0,-999.0,29,-99.99,,,0.00,0.0,cwc,2013-03-07 02:35:00,
2013-03-06 19:40:00,55.5,29.9,29.90,SW,236,9.0,-999.0,29,-99.99,,,0.00,0.0,cwc,2013-03-07 02:40:00,
2013-03-06 19:45:00,55.6,30.0,29.90,SW,223,2.0,-999.0,29,-99.99,,,0.00,0.0,cwc,2013-03-07 02:45:00,
2013-03-06 19:50:00,55.6,30.0,29.90,SW,234,5.0,-999.0,29,-99.99,,,0.00,0.0,cwc,2013-03-07 02:50:00,
2013-03-06 19:55:00,55.5,29.9,29.90,SW,223,5.0,-999.0,29,-99.99,,,0.00,0.0,cwc,2013-03-07 02:55:00,
2013-03-06 20:05:00,55.3,29.7,29.90,SW,230,4.0,-999.0,29,-99.99,,,0.00,0.0,cwc,2013-03-07 03:05:00,
2013-03-06 20:15:00,54.5,28.9,29.90,WSW,243,0.0,-999.0,29,-99.99,,,0.00,0.0,cwc,2013-03-07 03:15:00,
2013-03-06 20:25:00,54.2,29.0,29.90,SW,236,6.0,-999.0,30,-99.99,,,0.00,0.0,cwc,2013-03-07 03:25:00,
2013-03-06 20:30:00,54.3,28.7,29.91,WSW,239,3.0,-999.0,29,-99.99,,,0.00,0.0,cwc,2013-03-07 03:30:00,
2013-03-06 20:35:00,54.3,28.7,29.91,WSW,257,2.0,-999.0,29,-99.99,,,0.00,0.0,cwc,2013-03-07 03:35:00,
2013-03-06 20:40:00,53.8,28.6,29.91,WSW,256,3.0,-999.0,30,-99.99,,,0.00,0.0,cwc,2013-03-07 03:40:00,
2013-03-06 20:55:00,51.4,26.9,29.91,WSW,248,5.0,-999.0,32,-99.99,,,0.00,0.0,cwc,2013-03-07 03:55:00,
2013-03-06 21:00:00,50.9,26.4,29.91,WSW,248,1.0,-999.0,32,-99.99,,,0.00,0.0,cwc,2013-03-07 04:00:00,
2013-03-06 21:10:00,49.7,25.6,29.92,WSW,248,0.0,-999.0,33,-99.99,,,0.00,0.0,cwc,2013-03-07 04:10:00,
2013-03-06 21:15:00,48.7,24.9,29.92,WSW,248,0.0,-999.0,34,-99.99,,,0.00,0.0,cwc,2013-03-07 04:15:00,
2013-03-06 21:25:00,47.4,24.4,29.92,WSW,248,1.0,-999.0,36,-99.99,,,0.00,0.0,cwc,2013-03-07 04:25:00,
2013-03-06 21:30:00,47.2,24.2,29.92,WSW,248,3.0,-999.0,36,-99.99,,,0.00,0.0,cwc,2013-03-07 04:30:00,
2013-03-06 21:35:00,46.7,23.7,29.92,WSW,248,0.0,-999.0,36,-99.99,,,0.00,0.0,cwc,2013-03-07 04:35:00,
2013-03-06 21:45:00,45.6,23.3,29.92,WSW,248,0.0,-999.0,38,-99.99,,,0.00,0.0,cwc,2013-03-07 04:45:00,
2013-03-06 21:55:00,45.0,22.7,29.92,WSW,248,1.0,-999.0,38,-99.99,,,0.00,0.0,cwc,2013-03-07 04:55:00,
2013-03-06 22:00:00,44.5,22.5,29.93,WSW,248,1.0,-999.0,39,-99.99,,,0.00,0.0,cwc,2013-03-07 05:00:00,
2013-03-06 22:05:00,44.0,22.0,29.92,WSW,248,1.0,-999.0,39,-99.99,,,0.00,0.0,cwc,2013-03-07 05:05:00,
2013-03-06 22:10:00,43.5,21.5,29.92,WSW,248,0.0,-999.0,39,-99.99,,,0.00,0.0,cwc,2013-03-07 05:10:00,
2013-03-06 22:15:00,43.0,21.4,29.92,WSW,248,0.0,-999.0,40,-99.99,,,0.00,0.0,cwc,2013-03-07 05:15:00,
2013-03-06 22:25:00,41.8,20.9,29.93,WSW,248,0.0,-999.0,42,-99.99,,,0.00,0.0,cwc,2013-03-07 05:25:00,
2013-03-06 22:30:00,41.4,20.5,29.93,WSW,248,0.0,-999.0,42,-99.99,,,0.00,0.0,cwc,2013-03-07 05:30:00,
2013-03-06 22:40:00,40.5,20.0,29.93,WSW,248,2.0,-999.0,43,-99.99,,,0.00,0.0,cwc,2013-03-07 05:40:00,
2013-03-06 22:45:00,40.2,20.0,29.93,WSW,248,0.0,-999.0,44,-99.99,,,0.00,0.0,cwc,2013-03-07 05:45:00,
2013-03-06 22:55:00,39.1,19.3,29.93,WSW,248,2.0,-999.0,45,-99.99,,,0.00,0.0,cwc,2013-03-07 05:55:00,
2013-03-06 23:00:00,38.3,18.9,29.93,WSW,248,2.0,-999.0,46,-99.99,,,0.00,0.0,cwc,2013-03-07 06:00:00,
2013-03-06 23:05:00,38.1,19.0,29.93,WSW,248,2.0,-999.0,47,-99.99,,,0.00,0.0,cwc,2013-03-07 06:05:00,
2013-03-06 23:15:00,37.7,18.6,29.93,WSW,248,2.0,-999.0,47,-99.99,,,0.00,0.0,cwc,2013-03-07 06:15:00,
2013-03-06 23:20:00,37.3,18.6,29.93,WSW,248,3.0,-999.0,48,-99.99,,,0.00,0.0,cwc,2013-03-07 06:20:00,
2013-03-06 23:25:00,37.3,18.9,29.93,WSW,248,3.0,-999.0,49,-99.99,,,0.00,0.0,cwc,2013-03-07 06:25:00,
2013-03-06 23:30:00,37.4,18.7,29.93,WSW,248,1.0,-999.0,48,-99.99,,,0.00,0.0,cwc,2013-03-07 06:30:00,
2013-03-06 23:35:00,37.3,18.6,29.94,WSW,248,2.0,-999.0,48,-99.99,,,0.00,0.0,cwc,2013-03-07 06:35:00,
2013-03-06 23:40:00,36.9,18.5,29.94,WSW,248,3.0,-999.0,49,-99.99,,,0.00,0.0,cwc,2013-03-07 06:40:00,
2013-03-06 23:45:00,36.7,18.3,29.94,WSW,248,2.0,-999.0,49,-99.99,,,0.00,0.0,cwc,2013-03-07 06:45:00,
2013-03-06 23:55:00,36.4,18.0,29.94,WSW,248,3.0,-999.0,49,-99.99,,,0.00,0.0,cwc,2013-03-07 06:55:00,